Torna al catalogo

STARLINK-35770

AttivoComunicazioniVLEO
NORAD 66977·PAYLOAD·🇺🇸 United States

Lanciato Dec 8, 2025 da Cape Canaveral Space Force Station

Loading…

Prossimi Passaggi (prossime 24 ore)

TLE

AggiornatoSource: CelesTrak SupGP

Epoca: Sep 15, 2026, 03:44 UTC

1 66977C 25288U   26258.15604167 -.00002168  00000+0 -78493-4 0  2584
2 66977  43.0044  33.6602 0001761 269.9341   7.9068 15.27588998    14

Traccia STARLINK-35770 in tempo reale con AllMySat

Download on the App Store